^^
Your Local Weather - Clay, NY Station Historical Data
Daily Summary for April 6, 2017 Units:  Metric    English   Both
« Previous Day
Next Day »
Daily Weekly Monthly Yearly Custom
  High: Low: Average:
Temperature: 7.9 °C 4.3 °C 5.8 °C
Dew Point: 5.1 °C 2.4 °C 3.8 °C
Humidity: 93% 79% 87%
Wind Speed: 12.9km/h 0km/h 7.1km/h
Wind Gust: 25.7km/h - -
Wind- - East
Pressure: 1009.7 hPa 984.3 hPa -
Precipitation: 27.94 mm    
Historical Graphs
 
 
Tabular Data for April 6, 2017
Time Temperature Dew Point Pressure Wind Wind Speed Wind Gust Humidity Rainfall Rate (Hourly) solar
00:02 5 °C 2.5 °C 1009.7 hPa ENE 6.4 km/h 8 km/h 84% 0 mm 0 W/m2
00:08 4.9 °C 2.4 °C 1009.7 hPa ENE 6.4 km/h 8 km/h 84% 0 mm 0 W/m2
00:14 5 °C 2.5 °C 1009.7 hPa East 6.4 km/h 11.3 km/h 84% 0 mm 0 W/m2
00:20 5.1 °C 2.6 °C 1009.7 hPa East 6.4 km/h 6.4 km/h 84% 0 mm 0 W/m2
00:26 4.9 °C 2.4 °C 1009.4 hPa East 6.4 km/h 11.3 km/h 84% 0 mm 0 W/m2
00:32 4.9 °C 2.6 °C 1009.4 hPa East 6.4 km/h 12.9 km/h 85% 0 mm 0 W/m2
00:38 4.9 °C 2.6 °C 1009 hPa East 6.4 km/h 12.9 km/h 85% 0 mm 0 W/m2
00:44 4.9 °C 2.6 °C 1008.7 hPa SE 6.4 km/h 11.3 km/h 85% 0 mm 0 W/m2
00:50 4.9 °C 2.6 °C 1008.7 hPa ENE 6.4 km/h 6.4 km/h 85% 0 mm 0 W/m2
00:56 4.9 °C 2.6 °C 1008.7 hPa East 4.8 km/h 6.4 km/h 85% 0 mm 0 W/m2
01:02 4.9 °C 2.6 °C 1008.4 hPa ENE 4.8 km/h 8 km/h 85% 0 mm 0 W/m2
01:08 5.1 °C 2.6 °C 1008.4 hPa ENE 8 km/h 8 km/h 84% 0 mm 0 W/m2
01:14 5.3 °C 2.8 °C 1008 hPa ESE 8 km/h 8 km/h 84% 0 mm 0 W/m2
01:20 5.3 °C 2.8 °C 1007.7 hPa ENE 6.4 km/h 6.4 km/h 84% 0 mm 0 W/m2
01:26 5.4 °C 2.8 °C 1007.3 hPa ENE 8 km/h 17.7 km/h 83% 0 mm 0 W/m2
01:32 5.5 °C 2.8 °C 1007.3 hPa ESE 8 km/h 8 km/h 83% 0 mm 0 W/m2
01:38 5.6 °C 2.9 °C 1007.3 hPa ENE 8 km/h 14.5 km/h 83% 0 mm 0 W/m2
01:44 5.8 °C 2.9 °C 1007.3 hPa East 8 km/h 8 km/h 82% 0 mm 0 W/m2
01:50 5.9 °C 3.1 °C 1007.3 hPa NE 8 km/h 9.7 km/h 82% 0 mm 0 W/m2
01:56 6.1 °C 3.2 °C 1007 hPa East 8 km/h 9.7 km/h 82% 0 mm 0 W/m2
02:02 6.2 °C 3.2 °C 1007 hPa ENE 8 km/h 8 km/h 81% 0 mm 0 W/m2
02:08 6.4 °C 3.2 °C 1006.7 hPa ENE 8 km/h 11.3 km/h 80% 0 mm 0 W/m2
02:14 6.4 °C 3.2 °C 1006.3 hPa ESE 8 km/h 16.1 km/h 80% 0 mm 0 W/m2
02:20 6.6 °C 3.3 °C 1006.3 hPa ENE 9.7 km/h 9.7 km/h 80% 0 mm 0 W/m2
02:26 6.6 °C 3.4 °C 1006.3 hPa ENE 8 km/h 9.7 km/h 80% 0 mm 0 W/m2
02:32 6.7 °C 3.4 °C 1006.3 hPa ENE 6.4 km/h 6.4 km/h 80% 0 mm 0 W/m2
02:38 6.7 °C 3.3 °C 1006 hPa East 8 km/h 17.7 km/h 79% 0 mm 0 W/m2
02:44 6.7 °C 3.3 °C 1005.6 hPa ENE 9.7 km/h 17.7 km/h 79% 0 mm 0 W/m2
02:50 6.7 °C 3.3 °C 1005.6 hPa ESE 8 km/h 8 km/h 79% 0 mm 0 W/m2
02:56 6.8 °C 3.4 °C 1005.6 hPa East 8 km/h 12.9 km/h 79% 0 mm 0 W/m2
03:02 6.8 °C 3.4 °C 1005.6 hPa ESE 6.4 km/h 16.1 km/h 79% 0 mm 0 W/m2
03:08 6.8 °C 3.4 °C 1005.3 hPa East 6.4 km/h 16.1 km/h 79% 0 mm 0 W/m2
03:26 6.8 °C 3.4 °C 1004.6 hPa East 8 km/h 12.9 km/h 79% 0 mm 0 W/m2
03:38 6.8 °C 3.4 °C 1005 hPa ENE 9.7 km/h 17.7 km/h 79% 0 mm 0 W/m2
03:44 6.7 °C 3.3 °C 1005 hPa ESE 6.4 km/h 9.7 km/h 79% 0 mm 0 W/m2
03:50 6.7 °C 3.5 °C 1004.6 hPa SE 9.7 km/h 9.7 km/h 80% 0 mm 0 W/m2
03:56 6.7 °C 3.5 °C 1004.6 hPa East 9.7 km/h 9.7 km/h 80% 0 mm 0 W/m2
04:02 6.7 °C 3.5 °C 1004.6 hPa ENE 8 km/h 9.7 km/h 80% 0 mm 0 W/m2
04:08 6.7 °C 3.4 °C 1004.6 hPa NE 8 km/h 9.7 km/h 80% 0 mm 0 W/m2
04:14 6.7 °C 3.5 °C 1004.3 hPa East 8 km/h 14.5 km/h 80% 0 mm 0 W/m2
04:20 6.7 °C 3.5 °C 1004.3 hPa ENE 8 km/h 12.9 km/h 80% 0 mm 0 W/m2
04:26 6.8 °C 3.6 °C 1004.3 hPa ENE 8 km/h 12.9 km/h 80% 0 mm 0 W/m2
04:32 6.8 °C 3.6 °C 1004.3 hPa ENE 8 km/h 8 km/h 80% 0 mm 0 W/m2
04:38 6.8 °C 3.6 °C 1003.9 hPa NE 8 km/h 17.7 km/h 80% 0 mm 0 W/m2
04:44 6.8 °C 3.6 °C 1003.9 hPa ENE 8 km/h 11.3 km/h 80% 0 mm 0 W/m2
04:50 6.9 °C 3.7 °C 1003.9 hPa ENE 6.4 km/h 6.4 km/h 80% 0 mm 0 W/m2
04:56 6.9 °C 3.7 °C 1003.6 hPa ENE 8 km/h 12.9 km/h 80% 0 mm 0 W/m2
05:02 7.1 °C 3.8 °C 1003.6 hPa ENE 9.7 km/h 11.3 km/h 80% 0 mm 0 W/m2
05:08 7.1 °C 3.7 °C 1003.3 hPa ENE 9.7 km/h 11.3 km/h 79% 0 mm 0 W/m2
05:14 7.1 °C 3.8 °C 1003.3 hPa ENE 9.7 km/h 14.5 km/h 80% 0 mm 0 W/m2
05:20 7.1 °C 3.8 °C 1003.3 hPa ENE 8 km/h 8 km/h 80% 0 mm 0 W/m2
05:26 7.1 °C 3.8 °C 1003.3 hPa East 6.4 km/h 16.1 km/h 80% 0 mm 0 W/m2
05:32 7 °C 3.8 °C 1003.3 hPa ESE 6.4 km/h 6.4 km/h 80% 0 mm 0 W/m2
05:38 7.1 °C 3.8 °C 1003.3 hPa East 8 km/h 11.3 km/h 80% 0 mm 0 W/m2
05:44 7 °C 3.9 °C 1002.9 hPa ENE 6.4 km/h 8 km/h 81% 0 mm 0 W/m2
05:50 7.1 °C 4 °C 1002.9 hPa East 6.4 km/h 6.4 km/h 81% 0 mm 0 W/m2
05:56 7.1 °C 4.1 °C 1002.9 hPa NE 6.4 km/h 8 km/h 81% 0 mm 0 W/m2
06:02 7.1 °C 4.1 °C 1002.6 hPa East 6.4 km/h 6.4 km/h 81% 0 mm 0 W/m2
06:08 7.1 °C 4.1 °C 1002.6 hPa East 6.4 km/h 11.3 km/h 81% 0 mm 0 W/m2
06:14 7.2 °C 4.1 °C 1002.6 hPa SE 6.4 km/h 11.3 km/h 81% 0 mm 0 W/m2
06:20 7.2 °C 4.2 °C 1002.3 hPa ESE 8 km/h 8 km/h 81% 0 mm 0 W/m2
06:26 7.3 °C 4.2 °C 1001.9 hPa East 8 km/h 11.3 km/h 81% 0 mm 0 W/m2
06:32 7.3 °C 4.3 °C 1001.9 hPa NE 8 km/h 9.7 km/h 81% 0 mm 0 W/m2
06:38 7.4 °C 4.3 °C 1001.9 hPa East 8 km/h 12.9 km/h 81% 0 mm 0 W/m2
06:44 7.5 °C 4.4 °C 1001.9 hPa ESE 8 km/h 8 km/h 81% 0 mm 0 W/m2
06:50 7.5 °C 4.4 °C 1001.9 hPa ESE 8 km/h 8 km/h 81% 0 mm 0 W/m2
06:56 7.6 °C 4.5 °C 1001.9 hPa East 6.4 km/h 8 km/h 81% 0 mm 0 W/m2
07:02 7.7 °C 4.4 °C 1001.9 hPa ENE 6.4 km/h 8 km/h 80% 0 mm 5 W/m2
07:08 7.7 °C 4.4 °C 1001.6 hPa East 6.4 km/h 11.3 km/h 80% 0 mm 9 W/m2
07:14 7.7 °C 4.5 °C 1001.6 hPa East 8 km/h 16.1 km/h 80% 0 mm 9 W/m2
07:20 7.8 °C 4.6 °C 1001.6 hPa ESE 9.7 km/h 9.7 km/h 80% 0 mm 11 W/m2
07:26 7.8 °C 4.6 °C 1001.6 hPa East 8 km/h 11.3 km/h 80% 0 mm 12 W/m2
07:32 7.8 °C 4.6 °C 1001.6 hPa East 6.4 km/h 11.3 km/h 80% 0 mm 14 W/m2
07:38 7.9 °C 4.7 °C 1001.2 hPa East 6.4 km/h 11.3 km/h 80% 0 mm 9 W/m2
07:44 7.9 °C 4.7 °C 1001.2 hPa East 4.8 km/h 6.4 km/h 80% 0 mm 11 W/m2
07:50 7.9 °C 4.7 °C 1001.2 hPa East 6.4 km/h 6.4 km/h 80% 0 mm 11 W/m2
07:56 7.8 °C 4.8 °C 1000.9 hPa East 4.8 km/h 12.9 km/h 81% 0 mm 11 W/m2
08:02 7.7 °C 4.9 °C 1000.9 hPa East 3.2 km/h 4.8 km/h 83% 0 mm 14 W/m2
08:08 7.3 °C 4.8 °C 1000.9 hPa ESE 4.8 km/h 9.7 km/h 84% 1.78 mm 14 W/m2
08:14 7.1 °C 4.8 °C 1000.9 hPa NE 4.8 km/h 6.4 km/h 85% 2.79 mm 25 W/m2
08:20 6.9 °C 4.9 °C 1000.6 hPa East 4.8 km/h 8 km/h 87% 3.05 mm 30 W/m2
08:26 6.8 °C 4.9 °C 1000.2 hPa East 4.8 km/h 8 km/h 88% 1.27 mm 46 W/m2
08:32 6.7 °C 4.8 °C 1000.2 hPa ESE 8 km/h 8 km/h 88% 0 mm 32 W/m2
08:38 6.6 °C 4.9 °C 999.9 hPa East 8 km/h 16.1 km/h 89% 0 mm 46 W/m2
08:44 6.6 °C 4.9 °C 999.5 hPa East 9.7 km/h 9.7 km/h 89% 0 mm 128 W/m2
08:50 6.6 °C 4.9 °C 999.2 hPa East 8 km/h 9.7 km/h 89% 0 mm 74 W/m2
08:56 6.6 °C 4.9 °C 999.2 hPa East 8 km/h 11.3 km/h 89% 0 mm 46 W/m2
09:02 6.6 °C 4.9 °C 999.5 hPa East 8 km/h 9.7 km/h 89% 0 mm 46 W/m2
09:08 6.6 °C 4.9 °C 999.5 hPa ESE 8 km/h 9.7 km/h 89% 0 mm 54 W/m2
09:14 6.6 °C 4.9 °C 999.5 hPa East 6.4 km/h 11.3 km/h 89% 0 mm 46 W/m2
09:20 6.6 °C 4.9 °C 999.2 hPa ENE 8 km/h 8 km/h 89% 0 mm 74 W/m2
09:32 6.7 °C 5 °C 998.5 hPa ENE 6.4 km/h 8 km/h 89% 0 mm 116 W/m2
09:38 6.8 °C 5.1 °C 998.9 hPa East 6.4 km/h 11.3 km/h 89% 0 mm 132 W/m2
09:50 6.8 °C 5 °C 998.2 hPa East 9.7 km/h 9.7 km/h 88% 0 mm 93 W/m2
09:56 6.8 °C 5 °C 998.9 hPa East 8 km/h 11.3 km/h 88% 0 mm 72 W/m2
10:02 6.9 °C 4.9 °C 998.5 hPa East 8 km/h 14.5 km/h 87% 0 mm 65 W/m2
10:08 6.8 °C 4.8 °C 998.5 hPa ENE 8 km/h 14.5 km/h 87% 0 mm 47 W/m2
10:14 6.7 °C 4.7 °C 998.2 hPa East 8 km/h 8 km/h 87% 0 mm 58 W/m2
10:20 6.7 °C 4.7 °C 998.2 hPa ENE 8 km/h 8 km/h 87% 0 mm 77 W/m2
10:26 6.7 °C 4.7 °C 998.2 hPa SE 8 km/h 8 km/h 87% 0 mm 63 W/m2
10:32 6.7 °C 4.7 °C 998.2 hPa ENE 4.8 km/h 6.4 km/h 87% 0 mm 51 W/m2
10:38 6.7 °C 4.6 °C 998.2 hPa ENE 4.8 km/h 11.3 km/h 86% 0 mm 53 W/m2
10:44 6.7 °C 4.6 °C 998.2 hPa ENE 8 km/h 19.3 km/h 86% 0 mm 54 W/m2
10:50 6.8 °C 4.6 °C 997.9 hPa ESE 8 km/h 8 km/h 86% 0 mm 104 W/m2
10:56 6.8 °C 4.5 °C 997.9 hPa ESE 8 km/h 11.3 km/h 85% 0 mm 91 W/m2
11:02 6.8 °C 4.5 °C 997.9 hPa East 6.4 km/h 8 km/h 85% 0 mm 77 W/m2
11:08 6.8 °C 4.4 °C 997.9 hPa East 6.4 km/h 11.3 km/h 85% 0 mm 47 W/m2
11:14 6.8 °C 4.4 °C 997.9 hPa East 8 km/h 9.7 km/h 85% 0 mm 60 W/m2
11:20 6.8 °C 4.4 °C 997.9 hPa ENE 6.4 km/h 6.4 km/h 85% 0 mm 47 W/m2
11:26 6.7 °C 4.3 °C 997.9 hPa NE 6.4 km/h 11.3 km/h 85% 0 mm 40 W/m2
11:32 6.6 °C 4.2 °C 997.5 hPa ENE 9.7 km/h 9.7 km/h 85% 0 mm 28 W/m2
11:38 6.4 °C 4.1 °C 997.2 hPa East 11.3 km/h 19.3 km/h 85% 0 mm 40 W/m2
11:44 6.3 °C 4.2 °C 997.2 hPa East 9.7 km/h 11.3 km/h 86% 0 mm 39 W/m2
11:50 6.2 °C 4 °C 997.2 hPa ENE 8 km/h 8 km/h 86% 2.79 mm 40 W/m2
11:56 6 °C 4 °C 997.2 hPa ENE 9.7 km/h 12.9 km/h 87% 1.27 mm 39 W/m2
12:02 5.8 °C 3.8 °C 997.2 hPa ENE 8 km/h 9.7 km/h 87% 0 mm 49 W/m2
12:08 5.7 °C 3.8 °C 996.8 hPa ENE 8 km/h 12.9 km/h 88% 0 mm 58 W/m2
12:14 5.6 °C 3.8 °C 996.8 hPa ENE 9.7 km/h 12.9 km/h 88% 0 mm 65 W/m2
12:20 5.6 °C 3.7 °C 996.2 hPa East 9.7 km/h 9.7 km/h 88% 0 mm 91 W/m2
12:26 5.6 °C 3.9 °C 996.8 hPa East 9.7 km/h 12.9 km/h 89% 4.57 mm 53 W/m2
12:38 5.3 °C 3.8 °C 996.2 hPa ESE 11.3 km/h 14.5 km/h 90% 2.54 mm 86 W/m2
12:44 5.2 °C 3.7 °C 996.2 hPa ENE 9.7 km/h 16.1 km/h 90% 1.27 mm 58 W/m2
12:50 5.2 °C 3.7 °C 996.2 hPa ESE 11.3 km/h 11.3 km/h 90% 0 mm 102 W/m2
12:56 5.2 °C 3.7 °C 996.2 hPa East 11.3 km/h 16.1 km/h 90% 0 mm 79 W/m2
13:04 5.2 °C 3.7 °C 996.2 hPa ENE 11.3 km/h 11.3 km/h 90% 0 mm 91 W/m2
13:10 5.3 °C 4 °C 995.8 hPa East 8 km/h 11.3 km/h 91% 0 mm 98 W/m2
13:16 5.5 °C 4.2 °C 995.5 hPa SE 8 km/h 11.3 km/h 91% 0 mm 225 W/m2
13:22 5.7 °C 4.3 °C 995.1 hPa ENE 8 km/h 17.7 km/h 91% 0 mm 185 W/m2
13:28 5.8 °C 4.3 °C 995.1 hPa NNE 9.7 km/h 17.7 km/h 90% 0 mm 225 W/m2
13:34 5.9 °C 4.4 °C 995.1 hPa ENE 6.4 km/h 9.7 km/h 90% 0 mm 185 W/m2
13:40 5.9 °C 4.4 °C 995.1 hPa East 6.4 km/h 8 km/h 90% 0 mm 167 W/m2
13:46 6.1 °C 4.4 °C 994.8 hPa ENE 8 km/h 17.7 km/h 89% 0 mm 149 W/m2
13:52 6.1 °C 4.4 °C 994.1 hPa ENE 9.7 km/h 11.3 km/h 89% 0 mm 137 W/m2
13:58 6.3 °C 4.7 °C 994.1 hPa SE 8 km/h 11.3 km/h 89% 0 mm 128 W/m2
14:04 6.3 °C 4.5 °C 994.1 hPa ENE 8 km/h 8 km/h 88% 0 mm 102 W/m2
14:10 6.3 °C 4.4 °C 993.5 hPa ENE 8 km/h 8 km/h 88% 0 mm 93 W/m2
14:16 6.2 °C 4.3 °C 993.1 hPa NNE 8 km/h 8 km/h 88% 0 mm 104 W/m2
14:22 6.1 °C 4.2 °C 993.1 hPa ENE 8 km/h 16.1 km/h 88% 0 mm 100 W/m2
14:28 6.1 °C 4.2 °C 992.8 hPa East 9.7 km/h 16.1 km/h 88% 0 mm 98 W/m2
14:34 6 °C 4.2 °C 992.4 hPa ENE 9.7 km/h 22.5 km/h 88% 0 mm 90 W/m2
14:42 5.9 °C 4.1 °C 992.4 hPa ENE 8 km/h 9.7 km/h 88% 0 mm 65 W/m2
14:48 6.1 °C 4.2 °C 992.1 hPa ENE 4.8 km/h 9.7 km/h 88% 0 mm 51 W/m2
14:54 6.2 °C 4.5 °C 992.4 hPa ENE 4.8 km/h 8 km/h 89% 0 mm 39 W/m2
15:00 6.3 °C 4.6 °C 992.1 hPa ENE 3.2 km/h 4.8 km/h 89% 0 mm 37 W/m2
15:06 6.6 °C 5.1 °C 992.1 hPa East 3.2 km/h 4.8 km/h 90% 0 mm 39 W/m2
15:12 6.7 °C 5.1 °C 992.4 hPa ENE 9.7 km/h 17.7 km/h 89% 3.3 mm 35 W/m2
15:18 6.1 °C 4.3 °C 992.1 hPa ENE 11.3 km/h 17.7 km/h 88% 4.32 mm 39 W/m2
15:24 5.7 °C 4 °C 992.1 hPa East 9.7 km/h 12.9 km/h 89% 5.59 mm 35 W/m2
15:30 5.3 °C 3.7 °C 991.8 hPa ESE 11.3 km/h 12.9 km/h 89% 7.37 mm 35 W/m2
15:36 5.1 °C 3.6 °C 991.4 hPa NNE 11.3 km/h 17.7 km/h 90% 6.86 mm 39 W/m2
15:42 5 °C 3.7 °C 991.4 hPa ENE 9.7 km/h 9.7 km/h 91% 4.83 mm 37 W/m2
15:48 4.9 °C 3.6 °C 991.4 hPa ENE 9.7 km/h 11.3 km/h 91% 2.79 mm 39 W/m2
15:54 4.9 °C 3.6 °C 991.4 hPa ENE 9.7 km/h 14.5 km/h 91% 3.81 mm 35 W/m2
16:00 4.9 °C 3.6 °C 991.4 hPa East 9.7 km/h 9.7 km/h 91% 3.81 mm 40 W/m2
16:04 4.9 °C 3.7 °C 991.4 hPa ESE 9.7 km/h 12.9 km/h 92% 5.08 mm 39 W/m2
16:10 4.8 °C 3.7 °C 991.1 hPa SSW 9.7 km/h 9.7 km/h 92% 5.59 mm 40 W/m2
16:16 4.8 °C 3.6 °C 990.7 hPa ENE 12.9 km/h 12.9 km/h 92% 5.84 mm 42 W/m2
16:22 4.7 °C 3.6 °C 990.7 hPa East 9.7 km/h 14.5 km/h 92% 4.83 mm 47 W/m2
16:28 4.7 °C 3.5 °C 990.4 hPa East 9.7 km/h 17.7 km/h 92% 3.81 mm 44 W/m2
16:34 4.7 °C 3.6 °C 990.4 hPa East 11.3 km/h 16.1 km/h 92% 2.29 mm 46 W/m2
16:40 4.7 °C 3.6 °C 990.4 hPa ENE 11.3 km/h 14.5 km/h 92% 3.05 mm 44 W/m2
16:46 4.7 °C 3.5 °C 990.1 hPa ESE 9.7 km/h 17.7 km/h 92% 3.56 mm 56 W/m2
16:52 4.7 °C 3.6 °C 989.7 hPa East 9.7 km/h 11.3 km/h 92% 2.79 mm 60 W/m2
17:04 4.8 °C 3.6 °C 989.4 hPa East 11.3 km/h 11.3 km/h 92% 2.54 mm 70 W/m2
17:10 4.7 °C 3.6 °C 989.4 hPa East 9.7 km/h 9.7 km/h 92% 2.54 mm 51 W/m2
17:16 4.7 °C 3.5 °C 989.1 hPa ENE 9.7 km/h 17.7 km/h 92% 1.78 mm 37 W/m2
17:22 4.6 °C 3.4 °C 989.1 hPa NE 11.3 km/h 25.7 km/h 92% 1.02 mm 28 W/m2
17:28 4.6 °C 3.4 °C 989.1 hPa ENE 11.3 km/h 25.7 km/h 92% 2.54 mm 21 W/m2
17:34 4.5 °C 3.3 °C 988.7 hPa East 11.3 km/h 20.9 km/h 92% 2.54 mm 18 W/m2
17:40 4.5 °C 3.2 °C 988.4 hPa South 11.3 km/h 11.3 km/h 91% 2.03 mm 16 W/m2
17:46 4.4 °C 3.1 °C 988.4 hPa ENE 11.3 km/h 11.3 km/h 91% 2.54 mm 16 W/m2
17:52 4.4 °C 3.3 °C 988.4 hPa East 8 km/h 9.7 km/h 92% 2.29 mm 18 W/m2
17:58 4.4 °C 3.3 °C 988.4 hPa ENE 8 km/h 12.9 km/h 92% 3.3 mm 16 W/m2
18:04 4.4 °C 3.3 °C 988.4 hPa East 9.7 km/h 12.9 km/h 92% 2.54 mm 12 W/m2
18:10 4.4 °C 3.3 °C 988 hPa NE 8 km/h 8 km/h 92% 2.54 mm 14 W/m2
18:16 4.4 °C 3.2 °C 988 hPa East 6.4 km/h 11.3 km/h 92% 4.57 mm 12 W/m2
18:28 4.4 °C 3.2 °C 987.7 hPa ENE 8 km/h 16.1 km/h 92% 3.05 mm 11 W/m2
18:34 4.4 °C 3.2 °C 987.4 hPa NE 6.4 km/h 9.7 km/h 92% 4.57 mm 7 W/m2
18:40 4.3 °C 3.2 °C 987.4 hPa NNE 9.7 km/h 9.7 km/h 92% 3.05 mm 7 W/m2
18:46 4.3 °C 3.2 °C 987.4 hPa East 8 km/h 11.3 km/h 92% 3.3 mm 7 W/m2
18:52 4.3 °C 3.2 °C 987.4 hPa SSE 6.4 km/h 16.1 km/h 92% 5.59 mm 5 W/m2
18:58 4.3 °C 3.2 °C 987.4 hPa ENE 8 km/h 16.1 km/h 92% 5.84 mm 5 W/m2
19:10 4.3 °C 3.2 °C 987 hPa NE 6.4 km/h 6.4 km/h 92% 4.06 mm 0 W/m2
19:16 4.3 °C 3.2 °C 986.7 hPa NNE 4.8 km/h 6.4 km/h 92% 3.3 mm 0 W/m2
19:22 4.3 °C 3.2 °C 986.7 hPa East 3.2 km/h 4.8 km/h 92% 3.81 mm 0 W/m2
19:28 4.3 °C 3.2 °C 986.7 hPa North 3.2 km/h 4.8 km/h 92% 3.05 mm 0 W/m2
19:34 4.3 °C 3.2 °C 986.7 hPa NNE 3.2 km/h 3.2 km/h 92% 3.3 mm 0 W/m2
19:40 4.4 °C 3.2 °C 986.3 hPa NE 4.8 km/h 4.8 km/h 92% 1.78 mm 0 W/m2
19:46 4.3 °C 3.2 °C 986 hPa East 4.8 km/h 8 km/h 92% 3.56 mm 0 W/m2
19:52 4.3 °C 3.2 °C 986 hPa ENE 6.4 km/h 6.4 km/h 92% 4.06 mm 0 W/m2
19:58 4.3 °C 3.2 °C 985.7 hPa NNE 4.8 km/h 8 km/h 92% 2.03 mm 0 W/m2
20:04 4.3 °C 3.2 °C 985.7 hPa ENE 3.2 km/h 4.8 km/h 92% 1.78 mm 0 W/m2
20:10 4.4 °C 3.3 °C 985.7 hPa ENE 4.8 km/h 8 km/h 93% 3.3 mm 0 W/m2
20:16 4.4 °C 3.3 °C 985.7 hPa ENE 4.8 km/h 8 km/h 93% 2.79 mm 0 W/m2
20:22 4.4 °C 3.3 °C 985.7 hPa East 6.4 km/h 8 km/h 93% 2.03 mm 0 W/m2
20:28 4.4 °C 3.4 °C 985.7 hPa NNE 6.4 km/h 12.9 km/h 93% 2.03 mm 0 W/m2
20:34 4.4 °C 3.4 °C 985.7 hPa East 4.8 km/h 4.8 km/h 93% 2.03 mm 0 W/m2
20:40 4.5 °C 3.4 °C 985.3 hPa ENE 3.2 km/h 12.9 km/h 93% 1.52 mm 0 W/m2
20:46 4.5 °C 3.4 °C 985.3 hPa East 6.4 km/h 12.9 km/h 93% 1.52 mm 0 W/m2
20:52 4.6 °C 3.5 °C 985.3 hPa NNW 4.8 km/h 6.4 km/h 93% 2.54 mm 0 W/m2
20:58 4.6 °C 3.5 °C 985.7 hPa ENE 3.2 km/h 6.4 km/h 93% 1.27 mm 0 W/m2
21:04 4.6 °C 3.5 °C 985.7 hPa ESE 4.8 km/h 4.8 km/h 93% 1.27 mm 0 W/m2
21:10 4.6 °C 3.6 °C 985.7 hPa East 4.8 km/h 4.8 km/h 93% 3.05 mm 0 W/m2
21:16 4.7 °C 3.6 °C 985.7 hPa ENE 4.8 km/h 8 km/h 93% 3.81 mm 0 W/m2
21:22 4.7 °C 3.6 °C 985.3 hPa East 4.8 km/h 4.8 km/h 93% 5.08 mm 0 W/m2
21:28 4.8 °C 3.7 °C 985 hPa East 3.2 km/h 4.8 km/h 93% 4.57 mm 0 W/m2
21:40 4.8 °C 3.8 °C 985 hPa East 3.2 km/h 3.2 km/h 93% 3.56 mm 0 W/m2
21:46 4.8 °C 3.8 °C 985 hPa SE 3.2 km/h 4.8 km/h 93% 3.3 mm 0 W/m2
21:52 4.8 °C 3.8 °C 985 hPa East 3.2 km/h 3.2 km/h 93% 3.05 mm 0 W/m2
21:58 4.8 °C 3.8 °C 985 hPa ENE 3.2 km/h 4.8 km/h 93% 2.54 mm 0 W/m2
22:04 4.8 °C 3.8 °C 985 hPa SSE 3.2 km/h 4.8 km/h 93% 2.54 mm 0 W/m2
22:10 4.8 °C 3.8 °C 985 hPa East 1.6 km/h 1.6 km/h 93% 2.29 mm 0 W/m2
22:16 4.8 °C 3.8 °C 984.6 hPa ENE 1.6 km/h 4.8 km/h 93% 1.78 mm 0 W/m2
22:22 4.8 °C 3.8 °C 984.6 hPa SE 3.2 km/h 4.8 km/h 93% 3.05 mm 0 W/m2
22:28 4.8 °C 3.7 °C 984.6 hPa ENE 1.6 km/h 4.8 km/h 93% 1.78 mm 0 W/m2
22:34 4.8 °C 3.7 °C 984.6 hPa ENE 1.6 km/h 1.6 km/h 93% 1.78 mm 0 W/m2
22:40 4.8 °C 3.7 °C 984.6 hPa Calm     93% 1.27 mm 0 W/m2
22:46 4.8 °C 3.7 °C 984.6 hPa SSE 1.6 km/h 3.2 km/h 93% 1.02 mm 0 W/m2
22:52 4.8 °C 3.7 °C 984.3 hPa SE 1.6 km/h 1.6 km/h 93% 1.02 mm 0 W/m2
22:58 4.8 °C 3.7 °C 984.3 hPa Calm   1.6 km/h 93% 1.02 mm 0 W/m2
23:04 4.8 °C 3.7 °C 984.3 hPa Calm     93% 0 mm 0 W/m2
23:10 4.8 °C 3.7 °C 984.6 hPa Calm     93% 0 mm 0 W/m2
23:16 4.8 °C 3.8 °C 984.6 hPa Calm   1.6 km/h 93% 0 mm 0 W/m2
23:22 4.8 °C 3.8 °C 984.6 hPa Calm     93% 0 mm 0 W/m2
23:28 4.9 °C 3.8 °C 984.6 hPa Calm   1.6 km/h 93% 1.27 mm 0 W/m2
23:34 4.9 °C 3.8 °C 984.6 hPa SSW 1.6 km/h 1.6 km/h 93% 1.27 mm 0 W/m2
23:40 4.9 °C 3.8 °C 984.6 hPa SW 3.2 km/h 3.2 km/h 93% 1.02 mm 0 W/m2
23:46 4.8 °C 3.8 °C 984.6 hPa WSW 3.2 km/h 3.2 km/h 93% 0 mm 0 W/m2
23:52 4.8 °C 3.7 °C 984.6 hPa WSW 3.2 km/h 3.2 km/h 93% 0 mm 0 W/m2
23:58 4.7 °C 3.7 °C 984.6 hPa West 3.2 km/h 4.8 km/h 93% 0 mm 0 W/m2
Country Meadow, Clay, NY, USA
Compliments of Weather Underground - 2 mb